[[{"header":{"parameterUnit":"m.s-1","parameterCategory":1,"la1":30.2991,"la2":30.254,"lo1":-89.0895,"lo2":-89.0444,"dy":0.0017,"dx":0.0017,"nx":28,"ny":28,"refTime":"2025-03-01T03:00:00:Z","depth":0,"parameterNumber":2,"parameterNumberName":"U-component_of_WINDS"},"data":[0,0,0,0,0,0,0,0,0,0,0,0,0,0,0,0,0,0,0,0,0,0,0,0,0,0,0,0,0,0,0,0,0,0,0,0,0,0,0,0,0,0,0,0,0,0,0,0,0,0,0,0,0,0,0,0,0,0,0.1543,0.1545,0,0.1702,0.1704,0.1706,0.1729,0.1728,0.1726,0.1725,0.1893,0.1898,0.1904,0,0,0,0,0,0,0,0,0,0,0,0,0,0.1267,0.1272,0.1543,0.1545,0.1547,0.1702,0.1704,0.1706,0.173,0.1728,0.1726,0.1724,0.1891,0.1898,0.1905,0,0,0,0,0,0,0,0,0,0,0,0,0,0.1403,0.1274,0.1543,0.1577,0.1582,0.1702,0.1704,0.1707,0.173,0.1728,0.1726,0.1724,0.1888,0.1897,0.1906,0.2003,0,0,0.1932,0.1936,0,0,0,0,0,0,0,0,0.1395,0.1413,0.157,0.1575,0.158,0.1694,0.1668,0.1807,0.1731,0.1674,0.1725,0.1722,0.1829,0.1842,0.1877,0.2011,0.2018,0.1933,0.1938,0.1942,0.1945,0,0,0,0,0,0,0,0.1386,0.1406,0.1606,0.1572,0.1579,0.1587,0.1604,0.1695,0.1762,0.1679,0.1681,0.1699,0.1831,0.1868,0.1881,0.2021,0.1933,0.1941,0.1946,0.1949,0.2251,0.2254,0,0,0,0,0,0,0.1369,0.1398,0.1601,0.1611,0.148,0.1594,0.1613,0.166,0.1761,0.1774,0.1701,0.1699,0.1854,0.1871,0.1887,0.2013,0.1942,0.195,0.1955,0.2248,0.2252,0.2255,0,0,0,0,0,0,0.1363,0.1387,0.1595,0.1505,0.1532,0.1601,0.1653,0.1664,0.1701,0.1777,0.179,0.1726,0.1853,0.1875,0.1976,0.2019,0.1954,0.1962,0.2245,0.2249,0.2253,0.2263,0,0,0,0,0,0,0.1355,0.1385,0.142,0.1506,0.1537,0.1678,0.1656,0.1669,0.1716,0.1716,0.1805,0.1817,0.1853,0.1962,0.1984,0.203,0.1969,0.2242,0.2247,0.2252,0.2259,0.2267,0.2274,0,0,0,0,0,0.1345,0.1416,0.1422,0.1446,0.1583,0.168,0.1698,0.1737,0.1719,0.1757,0.1807,0.1814,0.201,0.1972,0.1997,0.2046,0.2239,0.2245,0.2251,0.2256,0.2265,0.2273,0,0,0,0,0,0,0.1334,0.1428,0.1435,0.1535,0.16,0.1684,0.1733,0.1745,0.1817,0.1814,0.1861,0.1881,0.1981,0.2023,0.1979,0.215,0.2124,0.2135,0.2118,0.2128,0.2135,0.2124,0.1976,0,0,0,0,0,0.1343,0.1412,0.1491,0.1573,0.1604,0.1663,0.1707,0.1732,0.1801,0.1829,0.1886,0.1954,0.2032,0.2082,0.2157,0.2265,0.2288,0.2311,0.2319,0.2324,0.2335,0.2401,0.2414,0.2275,0.2275,0.2275,0,0,0.1363,0.1423,0.1463,0.1572,0.1625,0.1699,0.1686,0.1763,0.1821,0.1841,0.1941,0.1985,0.2065,0.2172,0.2221,0.221,0.2378,0.2332,0.2336,0.2344,0.2409,0.2422,0.2434,0.2279,0.2279,0.2278,0,0,0.1437,0.1487,0.1563,0.1617,0.1698,0.1737,0.1755,0.1839,0.187,0.197,0.1989,0.2058,0.2189,0.2248,0.2294,0.2397,0.2408,0.242,0.2459,0.2523,0.2534,0.2544,0.2586,0.2599,0.2429,0.2429,0.2429,0,0.1452,0.1563,0.1601,0.168,0.173,0.1751,0.1831,0.1882,0.1983,0.2019,0.2004,0.2173,0.2228,0.2352,0.2377,0.2412,0.2439,0.2411,0.2529,0.2539,0.2549,0.259,0.2605,0.243,0.243,0.243,0.243,0,0.158,0.1657,0.1709,0.1807,0.1862,0.194,0.1994,0.2046,0.2067,0.2109,0.2215,0.2282,0.2374,0.2405,0.2425,0.2533,0.2525,0.2519,0.2494,0.2563,0.2602,0.2618,0.2432,0.2432,0.2431,0.2431,0,0,0.1651,0.1771,0.179,0.1838,0.193,0.1992,0.2074,0.2163,0.2209,0.2279,0.2353,0.2465,0.2463,0.2516,0.2544,0.2599,0.2684,0.2588,0.2591,0.2608,0.2813,0.2819,0.2836,0.2691,0.2694,0.2696,0.2808,0,0.174,0.1885,0.1924,0.2049,0.2124,0.2148,0.222,0.2287,0.2329,0.2401,0.2449,0.2531,0.2518,0.2551,0.2607,0.2661,0.2726,0.2653,0.2764,0.2767,0.2746,0.2856,0.2861,0.2963,0.2823,0.2825,0.2827,0,0.1862,0.1936,0.2068,0.2156,0.2189,0.2252,0.2341,0.2408,0.2486,0.2514,0.2575,0.2599,0.2691,0.2659,0.2788,0.2738,0.2786,0.282,0.2825,0.284,0.2803,0.2877,0.2996,0.3013,0.2851,0.2849,0.2847,0,0.1907,0.2039,0.2136,0.2175,0.2279,0.2324,0.237,0.2446,0.2499,0.2577,0.2613,0.27,0.2749,0.2818,0.2867,0.2839,0.2995,0.2966,0.3024,0.3023,0.3057,0.3055,0.319,0.3082,0.3082,0.3081,0.3081,0,0.2004,0.2085,0.2159,0.2219,0.2312,0.2358,0.2451,0.2498,0.2566,0.2639,0.2664,0.2733,0.2792,0.2869,0.2908,0.3013,0.3033,0.3062,0.3072,0.3061,0.3059,0.3096,0.3091,0.3085,0.3085,0.3084,0.3083,0,0.207,0.2121,0.2231,0.2321,0.2346,0.2411,0.249,0.2552,0.2596,0.2689,0.2713,0.2784,0.2878,0.2933,0.305,0.3077,0.3194,0.3199,0.3168,0.3173,0.323,0.3226,0.3396,0.3423,0.3293,0.3294,0.3295,0,0.213,0.2193,0.2291,0.2341,0.2388,0.2468,0.2523,0.2572,0.2629,0.2726,0.2778,0.2873,0.2951,0.31,0.3164,0.3256,0.3266,0.332,0.328,0.327,0.3273,0.327,0.3279,0.3327,0.3328,0.3329,0.333,0,0.2233,0.2257,0.2334,0.2422,0.2488,0.2559,0.2631,0.2672,0.2734,0.2797,0.2893,0.2954,0.3076,0.3172,0.327,0.332,0.3338,0.3342,0.3361,0.3353,0.3334,0.3351,0.319,0.3338,0.3338,0.3337,0.3336,0.3336,0.2301,0.2361,0.244,0.2528,0.2587,0.2655,0.2719,0.2772,0.2852,0.2955,0.298,0.3082,0.3164,0.3298,0.3351,0.3434,0.3426,0.3452,0.346,0.3467,0.3471,0.3318,0.3452,0.3452,0.3451,0.3451,0.3451,0,0.241,0.2463,0.2543,0.2643,0.2713,0.2721,0.2803,0.2862,0.2951,0.3025,0.3103,0.3216,0.3311,0.3383,0.3481,0.3534,0.3545,0.3559,0.3557,0.357,0.347,0.3446,0.3549,0.3549,0.3549,0.3549,0.3549,0.3549,0.2475,0.2578,0.2612,0.2747,0.28,0.29,0.2946,0.3011,0.3071,0.3196,0.3274,0.3321,0.3397,0.3501,0.359,0.3609,0.3646,0.3659,0.368,0.3586,0.3576,0.3566,0.3544,0.3665,0.3666,0.3774,0.3775,0.3775]},{"header":{"parameterUnit":"m.s-1","parameterCategory":1,"la1":30.2991,"la2":30.254,"lo1":-89.0895,"lo2":-89.0444,"dy":0.0017,"dx":0.0017,"nx":28,"ny":28,"refTime":"2025-03-01T03:00:00:Z","depth":0,"parameterNumber":3,"parameterNumberName":"V-component_of_WINDS"},"data":[0,0,0,0,0,0,0,0,0,0,0,0,0,0,0,0,0,0,0,0,0,0,0,0,0,0,0,0,0,0,0,0,0,0,0,0,0,0,0,0,0,0,0,0,0,0,0,0,0,0,0,0,0,0,0,0,0,0,-4.0088,-4.0087,0,-3.9928,-3.9926,-3.9924,-3.9891,-3.9892,-3.9893,-3.9895,-3.9724,-3.9718,-3.9713,0,0,0,0,0,0,0,0,0,0,0,0,0,-4.0358,-4.0353,-4.0089,-4.0086,-4.0084,-3.9928,-3.9926,-3.9924,-3.9891,-3.9892,-3.9894,-3.9895,-3.9726,-3.9719,-3.9712,0,0,0,0,0,0,0,0,0,0,0,0,0,-4.0223,-4.0352,-4.0089,-4.0049,-4.0044,-3.9929,-3.9926,-3.9923,-3.989,-3.9892,-3.9894,-3.9896,-3.9728,-3.972,-3.9711,-3.9622,0,0,-3.9685,-3.9682,0,0,0,0,0,0,0,0,-4.0231,-4.0214,-4.0057,-4.0052,-4.0046,-3.9932,-3.9958,-3.9822,-3.989,-3.9949,-3.9895,-3.9897,-3.9791,-3.9777,-3.9743,-3.9614,-3.9607,-3.9684,-3.9679,-3.9676,-3.9673,0,0,0,0,0,0,0,-4.0241,-4.022,-4.0025,-4.0055,-4.0048,-4.0037,-4.002,-3.9932,-3.9861,-3.9944,-3.9941,-3.9923,-3.9788,-3.9751,-3.9739,-3.9604,-3.9685,-3.9677,-3.9672,-3.9669,-3.9389,-3.9387,0,0,0,0,0,0,-4.0258,-4.0228,-4.003,-4.002,-4.0145,-4.0031,-4.0011,-3.9966,-3.9862,-3.9848,-3.9921,-3.9922,-3.9765,-3.9749,-3.9733,-3.9618,-3.9676,-3.9668,-3.9663,-3.9391,-3.9388,-3.9386,0,0,0,0,0,0,-4.0264,-4.0241,-4.0036,-4.0123,-4.0097,-4.0024,-3.9973,-3.9962,-3.9925,-3.9845,-3.9832,-3.9897,-3.9766,-3.9745,-3.9649,-3.9611,-3.9664,-3.9656,-3.9394,-3.939,-3.9387,-3.9389,0,0,0,0,0,0,-4.0272,-4.0243,-4.021,-4.0123,-4.0092,-3.9958,-3.9971,-3.9958,-3.9911,-3.991,-3.9819,-3.9806,-3.9766,-3.9662,-3.9641,-3.9601,-3.9649,-3.9397,-3.9392,-3.9388,-3.9392,-3.9386,-3.9381,0,0,0,0,0,-4.0281,-4.0217,-4.0209,-4.0185,-4.005,-3.9956,-3.9938,-3.9895,-3.9909,-3.9873,-3.9822,-3.9809,-3.962,-3.9653,-3.9628,-3.9585,-3.9399,-3.9394,-3.9389,-3.9395,-3.9388,-3.9382,0,0,0,0,0,0,-4.03,-4.0205,-4.0195,-4.0101,-4.0037,-3.9951,-3.9905,-3.9889,-3.9819,-3.9821,-3.9769,-3.9748,-3.9655,-3.9611,-3.9649,-3.9491,-3.951,-3.9499,-3.9523,-3.9515,-3.951,-3.9521,-3.9642,0,0,0,0,0,-4.0293,-4.0227,-4.0147,-4.0071,-4.004,-3.9978,-3.9936,-3.9908,-3.9839,-3.9811,-3.9752,-3.9684,-3.9608,-3.956,-3.9487,-3.9387,-3.9364,-3.9345,-3.9339,-3.9335,-3.9326,-3.9265,-3.9254,-3.9369,-3.9369,-3.9369,0,0,-4.0278,-4.0218,-4.0179,-4.0073,-4.0021,-3.995,-3.9955,-3.9882,-3.9827,-3.9799,-3.9705,-3.9659,-3.9579,-3.948,-3.9433,-3.944,-3.929,-3.9329,-3.9326,-3.9318,-3.9259,-3.9248,-3.9238,-3.9365,-3.9366,-3.9366,0,0,-4.0214,-4.0164,-4.0094,-4.0041,-3.9961,-3.992,-3.9904,-3.9819,-3.9788,-3.9693,-3.9669,-3.9604,-3.9477,-3.9419,-3.9373,-3.9285,-3.9269,-3.9263,-3.9233,-3.9175,-3.9166,-3.9157,-3.9122,-3.911,-3.9255,-3.9255,-3.9255,0,-4.0205,-4.01,-4.0059,-3.9985,-3.9937,-3.991,-3.9836,-3.9786,-3.9686,-3.9652,-3.9663,-3.95,-3.9445,-3.933,-3.9308,-3.9274,-3.9249,-3.9272,-3.9171,-3.9162,-3.9153,-3.9119,-3.9106,-3.9254,-3.9254,-3.9254,-3.9254,0,-4.009,-4.0018,-3.997,-3.9875,-3.9822,-3.9749,-3.9693,-3.9644,-3.9621,-3.9578,-3.948,-3.9412,-3.9323,-3.9294,-3.9271,-3.9174,-3.9181,-3.9182,-3.9199,-3.9143,-3.9109,-3.9096,-3.9253,-3.9254,-3.9254,-3.9254,0,0,-4.0032,-3.9915,-3.9897,-3.9852,-3.9762,-3.9704,-3.9628,-3.9542,-3.9499,-3.9431,-3.9363,-3.9255,-3.9254,-3.9202,-3.9172,-3.9122,-3.9051,-3.9128,-3.9125,-3.9112,-3.8935,-3.8932,-3.8918,-3.9041,-3.9038,-3.9036,-3.894,0,-3.9954,-3.9819,-3.9779,-3.9664,-3.9594,-3.9567,-3.95,-3.9435,-3.9393,-3.9325,-3.9277,-3.92,-3.9208,-3.9175,-3.9124,-3.9071,-3.9014,-3.9077,-3.8973,-3.897,-3.899,-3.8901,-3.8898,-3.8811,-3.8927,-3.8925,-3.8924,0,-3.9844,-3.9775,-3.9653,-3.9569,-3.9538,-3.9479,-3.9395,-3.9332,-3.9257,-3.9229,-3.9171,-3.9145,-3.906,-3.9085,-3.8966,-3.901,-3.8965,-3.8932,-3.8927,-3.8912,-3.8941,-3.8879,-3.8782,-3.8767,-3.8903,-3.8905,-3.8906,0,-3.9808,-3.9685,-3.9595,-3.9558,-3.9459,-3.9417,-3.9373,-3.93,-3.925,-3.9177,-3.9143,-3.906,-3.9014,-3.8949,-3.89,-3.8923,-3.8783,-3.8805,-3.8754,-3.8755,-3.8723,-3.8724,-3.8612,-3.8701,-3.8701,-3.8701,-3.8702,0,-3.9723,-3.9649,-3.9577,-3.9521,-3.9436,-3.939,-3.9306,-3.926,-3.9195,-3.9128,-3.91,-3.9037,-3.8977,-3.8905,-3.8866,-3.8771,-3.8751,-3.8723,-3.8713,-3.8723,-3.8726,-3.869,-3.8693,-3.8698,-3.8699,-3.8699,-3.87,0,-3.9667,-3.9617,-3.9517,-3.9431,-3.9408,-3.9348,-3.9273,-3.9216,-3.9173,-3.9088,-3.9065,-3.8996,-3.8909,-3.8854,-3.8744,-3.8718,-3.8611,-3.8606,-3.8637,-3.8631,-3.8582,-3.8586,-3.8439,-3.8415,-3.8524,-3.8524,-3.8523,0,-3.9614,-3.9556,-3.9464,-3.9418,-3.9374,-3.93,-3.9249,-3.92,-3.9147,-3.9056,-3.9009,-3.8922,-3.8848,-3.8711,-3.8649,-3.8563,-3.8552,-3.8507,-3.8538,-3.8549,-3.8545,-3.8548,-3.8539,-3.85,-3.8499,-3.8498,-3.8498,0,-3.9524,-3.9501,-3.943,-3.9348,-3.9288,-3.9221,-3.9154,-3.9117,-3.9057,-3.8998,-3.891,-3.8853,-3.8741,-3.8652,-3.8561,-3.8512,-3.8492,-3.8489,-3.8471,-3.8479,-3.8498,-3.8482,-3.8618,-3.8491,-3.8492,-3.8492,-3.8493,-3.8493,-3.9464,-3.941,-3.9336,-3.9256,-3.9201,-3.9138,-3.908,-3.9029,-3.8955,-3.8861,-3.8836,-3.8743,-3.8666,-3.8542,-3.8492,-3.8415,-3.8421,-3.8398,-3.839,-3.8384,-3.8381,-3.8514,-3.8399,-3.8399,-3.8399,-3.8399,-3.84,0,-3.9368,-3.9319,-3.9246,-3.9153,-3.9089,-3.908,-3.9005,-3.8951,-3.887,-3.8801,-3.8729,-3.8626,-3.8539,-3.8471,-3.8381,-3.8332,-3.8321,-3.831,-3.8311,-3.8299,-3.8383,-3.8405,-3.832,-3.832,-3.8321,-3.8321,-3.8321,-3.8321,-3.931,-3.9216,-3.9185,-3.9062,-3.9013,-3.8922,-3.8879,-3.882,-3.8765,-3.8651,-3.8579,-3.8536,-3.8465,-3.837,-3.8289,-3.827,-3.8236,-3.8226,-3.8206,-3.8285,-3.8293,-3.8302,-3.8321,-3.8221,-3.822,-3.8127,-3.8126,-3.8125]}]]